Burlington, CO

12:32 AM MDT on April 29, 2017 (GMT -0600)
Kit Carson County

Weather History for KITR - October, 2011

Change the Weather History Date:

Monday, October 10, 2011

  Actual Average Record
Temperature  
Mean Temperature 49 °F 53 °F  
Max Temperature 68 °F 68 °F 90 °F (1962)
Min Temperature 30 °F 39 °F 18 °F (2009)
Degree Days  
Heating Degree Days 14    
Moisture  
Dew Point 37 °F    
Average Humidity 73    
Maximum Humidity 97    
Minimum Humidity 20    
Precipitation  
Precipitation 0.00 in 0.04 in 2.00 in (2005)
Month to date precipitation 0.31 0.40  
Year to date precipitation 15.41 15.69  
Sea Level Pressure  
Sea Level Pressure 29.95 in    
Wind  
Wind Speed 6 mph (South)    
Max Wind Speed 15 mph    
Max Gust Speed -    
Visibility 7 miles    
Events Fog    
T = Trace of Precipitation, MM = Missing Value Source: NWS Daily Summary

Daily Weather History Graph

Daily Weather History Graph

Search for Another Location

Airport or City:

Trip Planner

Search our weather history database for the weather conditions in past years. The results will help you decide how hot, cold, wet, or windy it might be!

Date:

Astronomy

Oct. 10, 2011 Rise Set
Actual Time 6:53 AM MDT 6:18 PM MDT
Civil Twilight 6:26 AM MDT 6:44 PM MDT
Nautical Twilight 5:55 AM MDT 7:15 PM MDT
Astronomical Twilight 5:24 AM MDT 7:46 PM MDT
Moon 5:22 PM MDT (10/10) 5:37 AM MDT (10/10)
Length of Visible Light 12h 18m
Length of Day
11h 24m
Waxing Gibbous, 98% of the Moon is Illuminated
Oct 10
Waxing Gibbous
Oct 11
Full
Oct 19
Last Quarter
Oct 26
New
Nov 2
First Quarter

Hourly Weather History & Observations

Time (MDT) Temp. Windchill Dew Point Humidity Pressure Visibility Wind Dir Wind Speed Gust Speed Precip Events Conditions
12:53 AM 34.0 °F 29.8 °F 32.0 °F 92% 30.06 in 7.0 mi WSW 4.6 mph - N/A   Clear
1:53 AM 35.1 °F 30.1 °F 32.0 °F 89% 30.04 in 7.0 mi West 5.8 mph - N/A   Clear
2:53 AM 34.0 °F - 30.9 °F 89% 30.03 in 8.0 mi Calm Calm - N/A   Clear
3:53 AM 36.0 °F 32.1 °F 33.1 °F 89% 30.00 in 10.0 mi SSE 4.6 mph - N/A   Clear
4:53 AM 34.0 °F 29.8 °F 30.9 °F 89% 30.01 in 10.0 mi South 4.6 mph - N/A   Clear
5:53 AM 33.1 °F 30.0 °F 30.9 °F 92% 30.01 in 10.0 mi SW 3.5 mph - N/A   Clear
7:53 AM 34.0 °F - 32.0 °F 92% 30.05 in 5.0 mi Calm Calm - N/A   Clear
8:53 AM 44.1 °F 41.5 °F 41.0 °F 89% 30.03 in 7.0 mi SW 4.6 mph - N/A   Clear
9:53 AM 53.1 °F - 43.0 °F 69% 30.01 in 10.0 mi West 5.8 mph - N/A   Clear
11:53 AM 61.0 °F - 37.0 °F 41% 29.97 in 10.0 mi Calm Calm - N/A   Clear
12:53 PM 64.0 °F - 35.1 °F 34% 29.94 in 10.0 mi Variable 3.5 mph - N/A   Clear
2:53 PM 68.0 °F - 32.0 °F 26% 29.88 in 10.0 mi ESE 5.8 mph - N/A   Clear
3:53 PM 68.0 °F - 28.9 °F 23% 29.86 in 10.0 mi SE 6.9 mph - N/A   Clear
4:53 PM 68.0 °F - 25.0 °F 20% 29.86 in 10.0 mi South 5.8 mph - N/A   Clear
7:53 PM 51.1 °F - 36.0 °F 56% 29.92 in 9.0 mi South 10.4 mph - N/A   Clear
8:53 PM 46.9 °F - 36.0 °F 66% 29.89 in 9.0 mi South 11.5 mph - N/A   Clear
9:53 PM 46.0 °F 41.0 °F 37.9 °F 73% 29.88 in 8.0 mi South 10.4 mph - N/A   Clear
10:53 PM 46.9 °F - 45.0 °F 93% 29.85 in 4.0 mi South 10.4 mph - N/A   Partly Cloudy
11:05 PM 50.0 °F - 48.2 °F 94% 29.92 in 3.0 mi South 10.4 mph - N/A   Mostly Cloudy
11:10 PM 50.0 °F - 48.2 °F 94% 29.92 in 1.8 mi South 13.8 mph - N/A   Mostly Cloudy
11:23 PM 51.8 °F - 50.0 °F 94% 29.91 in 0.5 mi South 15.0 mph - N/A Fog Fog
11:53 PM 52.0 °F - 51.1 °F 97% 29.81 in 0.5 mi South 13.8 mph - N/A Fog Fog